810  
ASUS46 KEKA 181814  
RWREKA  
EUREKA AREA WEATHER ROUNDUP  
NATIONAL WEATHER SERVICE EUREKA CA  
1100 AM PDT SUN AUG 18 2019  
 
NOTE: "FAIR" INDICATES FEW OR NO CLOUDS BELOW 12,000 FEET WITH NO  
SIGNIFICANT WEATHER AND/OR S TO VISIBILITY
.  
 
SOUTHWEST OREGON...  
 
CITY SKY/WX TMP DP RH WIND PRES REMARKS
 
MEDFORD SUNNY 73 49 42 CALM 29.84F  
KLAMATH FALLS SUNNY 74 46 36 CALM 29.96S  
NORTH BEND SUNNY 68 57 68 N12 29.90S  
ROSEBURG SUNNY 71 54 54 VRB3 29.87S  
SEXTON SUMMIT SUNNY 69 52 54 VRB3 29.94R  
BROOKINGS CLOUDY 55 53 93 SW5 29.89R  
 
NORTHWEST CALIFORNIA...  
 
CITY SKY/WX TMP DP RH WIND PRES REMARKS
 
CRESCENT CITY CLOUDY 58 55 90 S9 29.89R  
MCKINLEYVILLE CLOUDY 58 54 86 SW8 29.88R  
EUREKA PTSUNNY 60 50 69 SW9 29.88R  
FORTUNA N/A 63 55 77 NW9 29.89R  
WEAVERVILLE N/A 81 50 34 SW6 29.90S  
TRINITY CENTER N/A 77 45 31 CALM 29.90S  
UKIAH SUNNY 69 53 56 VRB7 29.86S  
 
NORTH & CENTRAL CALIFORNIA...  
 
CITY SKY/WX TMP DP RH WIND PRES REMARKS
 
YREKA SUNNY 79 44 28 CALM 29.88F  
MOUNT SHASTA SUNNY 79 46 31 VRB5 29.95R  
REDDING SUNNY 82 54 37 VRB5 29.82S  
RED BLUFF SUNNY 80 54 40 VRB3 29.84S  
CHICO SUNNY 75 48 38 CALM 29.86R  
YUBA CITY SUNNY 75 55 49 VRB6 29.85R  
SACRAMENTO SUNNY 72 56 57 VRB5 29.86R  
SANTA ROSA CLOUDY 63 55 75 VRB3 29.89S  
NAPA PTSUNNY 67 55 65 SW10 29.89R  
TRAVIS AFB NOT AVBL  
SAN FRANCISCO PTSUNNY 69 55 60 NE7 29.88R  
OAKLAND MOSUNNY 69 55 60 S6 29.89R  
STOCKTON NOT AVBL  
SALINAS MOSUNNY 68 54 60 SE6 29.94R  
MONTEREY CLOUDY 69 54 58 W12 29.94R  
 

 
 
 
CLICK HERE TO GO TO PREVIOUS BULLETINS.

The Nexlab CA Page Main Text Page